Location: SAPM � Hemmingford
(45.0500°N, 73.5833°W)
Time: 10:06:28
(UTC-05:00)

Daily predictions for brighter satellites

Satellite Brightness Start Highest point End
(mag) Time Altitude Azimuth Time Altitude Azimuth Time Altitude Azimuth
IRAS Rocket 4.4 16:37:27 10° SE 16:42:44 51° ENE 16:48:02 10° N
Cosmos 158 Rocket 4.4 16:40:24 10° N 16:45:09 37° ENE 16:49:45 10° SE
CSL-04 Rocket 3.8 16:40:48 10° SE 16:46:04 53° ENE 16:51:26 10° N
USA 215 3.3 16:40:59 10° ESE 16:47:31 81° NE 16:54:05 10° NW
Cosmos 1634 Rocket 4.1 16:43:09 10° S 16:49:22 84° W 16:55:41 10° N
Meteor 1-28 Rocket 4.4 16:46:32 10° NE 16:49:39 24° E 16:52:46 10° SSE
CZ-4 R/B 2.1 16:47:59 10° SE 16:51:21 29° ENE 16:54:49 10° N
Cosmos 2369 Rocket 4.4 16:48:25 10° W 16:52:03 17° NW 16:55:42 10° N
Cosmos 1697 Rocket 4.2 16:51:50 10° SE 16:55:27 18° E 16:59:04 10° ENE
Cosmos 1743 2.7 16:55:24 10° N 16:59:15 61° E 17:03:06 10° SSE
Cosmos 2150 Rocket 4.2 16:53:54 10° SSW 16:59:22 89° WNW 17:04:51 10° NNE
Cosmos 2082 3.8 16:59:30 10° NNW 17:04:59 51° ENE 17:10:26 10° SE
Cosmos 2026 Rocket 4.4 17:00:29 10° NNW 17:06:49 70° W 17:13:05 10° S
Cosmos 2266 Rocket 4.2 17:03:17 10° N 17:09:06 44° ENE 17:14:57 10° SSE
Cosmos 1655 Rocket 4.1 17:02:54 10° N 17:09:19 89° ENE 17:15:44 10° S
CENTAUR R/B 3.8 17:03:33 10° NNW 17:10:08 31° NNE 17:17:15 10° E
Abrixas rocket 2.5 17:09:18 10° W 17:12:30 55° NNW 17:14:55 16° ENE
PSLV R/B 4.4 17:13:45 10° SW 17:16:38 32° S 17:19:07 12° ESE
Cosmos 2227 Rocket 2.1 17:11:10 10° NNW 17:16:52 77° ENE 17:22:31 10° SSE
Radarsat 4.5 17:12:46 10° SSE 17:17:57 77° ENE 17:23:10 10° N
ISS -2.2 17:16:10 10° WNW 17:19:15 36° SW 17:22:17 10° SSE
CZ-2C R/B 4.2 17:14:59 10° SSW 17:19:48 38° W 17:24:36 10° NNW
SJ-7 4.5 17:16:40 10° S 17:20:39 79° WSW 17:24:39 10° NNW
SPOT 3 Rocket 4.3 17:16:30 10° SE 17:20:58 30° ENE 17:25:26 10° N
Cosmos 1455 Rocket 3.0 17:17:31 10° N 17:21:59 88° E 17:26:22 10° S
ERS-2 3.1 17:20:18 10° SE 17:23:22 26° ENE 17:26:27 10° N
CORIOLIS 4.1 17:18:20 10° SSE 17:23:43 80° ENE 17:29:08 10° NNW
Cosmos 1544 Rocket 3.7 17:21:52 10° NNW 17:26:15 77° W 17:30:34 10° S
Cosmos 1271 Rocket 3.4 17:25:50 10° NNW 17:29:34 57° W 17:33:20 10° S
Ariane Rocket 3.2 17:24:43 10° S 17:29:46 77° WSW 17:34:51 10° NNW
Meteor 2-9 Rocket 4.1 17:24:15 10° N 17:29:47 73° E 17:35:08 10° SSE
USA 161 4.2 17:29:32 10° NNW 17:31:46 20° WNW 17:34:04 10° WSW
MOS 1 4.5 17:26:36 10° SE 17:32:01 49° ENE 17:37:28 10° N
USA 116 3.3 17:30:22 15° NNE 17:32:47 51° E 17:35:48 10° S
YAOGAN 1 2.5 17:29:26 10° SSE 17:33:42 63° ENE 17:38:00 10° N
Cosmos 1980 Rocket 3.4 17:32:01 10° SSE 17:36:17 22° E 17:37:46 20° E
CZ-4 R/B 4.4 17:32:13 10° SSE 17:36:18 61° ENE 17:40:24 10° N
Meteor 1-23 Rocket 4.5 17:31:49 10° SSE 17:37:19 48° E 17:42:46 10° NNE
USA 238 DEB 4.1 17:31:16 10° NW 17:38:20 70° WSW 17:45:28 10° SSE
USA 238 4.1 17:31:22 10° NW 17:38:26 71° WSW 17:45:34 10° SSE
Cosmos 1269 Rocket 4.0 17:33:08 10° NNW 17:38:27 66° ENE 17:43:42 10° SSE
Gblst 52 Del rocket 4.2 17:35:47 10° WNW 17:41:21 68° NNE 17:46:02 17° ESE
Cosmos 1125 Rocket 3.5 17:37:07 10° S 17:42:23 72° ESE 17:47:09 13° NNE
Cosmos 2297 Rocket 2.3 17:37:47 10° NNW 17:43:28 79° WSW 17:49:07 10° SSE
Atlas Centaur 2 4.5 17:42:34 10° SW 17:44:41 12° SSW 17:46:39 10° S
COSMO-SKYMED 1 2.7 17:44:36 16° NNE 17:47:54 51° E 17:52:08 10° S
Cosmos 1484 Rocket 4.3 17:44:29 10° SSW 17:48:16 40° W 17:52:05 10° NNW
Cosmos 1666 4.3 17:45:10 10° NNW 17:48:38 36° W 17:52:05 10° SSW
Cosmos 1048 Rocket 4.1 17:43:36 10° NNW 17:49:01 84° WSW 17:54:24 10° SSE
CZ-2C R/B 3.7 17:44:27 10° NNE 17:49:11 87° ESE 17:53:56 10° SSW
Cosmos 1656 3.6 17:45:24 10° SSW 17:50:56 73° ESE 17:55:05 18° NNE
IRS-1A Rocket 4.3 17:46:08 10° SSE 17:51:43 81° WSW 17:57:17 10° NNW
SJ 16-02 1.3 17:50:21 10° SSW 17:54:44 89° WNW 17:58:00 18° NNE
MONITOR-E 3.9 17:55:11 10° SSE 17:58:13 71° ENE 18:01:16 10° N
Cosmos 372 Rocket 3.9 17:53:45 10° SSW 17:58:58 87° WNW 18:03:10 16° NNE
Meteor 2-11 Rocket 4.4 17:59:08 10° S 18:05:08 58° E 18:11:09 10° NNE
NOSS 3-2 (A) 4.1 17:59:41 10° NW 18:07:12 79° SW 18:15:23 10° SSE
Meteor 2-4 Rocket 4.0 18:03:26 10° SSW 18:08:49 63° WNW 18:14:09 10° N
MTI 3.8 18:07:57 46° N 18:08:50 80° WNW 18:12:04 10° SSW
RESURS DK-1 4.3 18:07:12 10° SSE 18:08:21 16° SE 18:08:21 16° SE
NOAA 12 4.0 18:09:06 10° SSE 18:14:22 82° ENE 18:19:38 10° NNW
NOSS 3-2 (C) 4.0 18:07:21 10° NW 18:14:52 88° SW 18:23:07 10° SE
Okean 1-7 Rocket 3.6 18:12:27 10° S 18:16:44 54° E 18:16:45 54° E
Cosmos 1745 Rocket 4.5 18:11:28 10° N 18:24:43 - SE 18:16:25 36° ENE
DELTA 2 R/B (1) 4.3 18:12:08 10° W 18:17:26 46° S 18:20:00 27° SE
ALOS 2.2 18:12:51 10° SSE 18:17:31 87° W 18:22:13 10° NNW
Cosmos 1025 Rocket 2.8 18:14:33 10° S 18:18:51 76° E 18:19:59 48° NNE
Cosmos 2263 Rocket 3.8 18:15:28 10° N 18:17:42 18° NNE 18:17:42 18° NNE
Cosmos 2369 4.1 18:14:48 10° SW 18:20:25 61° WNW 18:24:30 19° NNE
Cosmos 2278 4.1 18:15:21 10° SW 18:20:59 63° WNW 18:24:58 20° NNE
ATLAS 3B R/B 4.1 18:15:02 10° NW 18:21:01 37° WSW 18:26:52 10° S
ATLAS 2AS CENTAUR R/B 3.9 18:15:38 10° WSW 18:23:11 46° NW 18:29:08 18° NNE
FENGYUN 3A 3.6 18:18:08 10° SSE 18:23:31 83° WSW 18:28:55 10° NNW
Cosmos 2360 4.4 18:18:57 10° S 18:24:25 49° ESE 18:24:59 47° E
CZ-4 R/B 3.8 18:23:18 10° SSW 18:26:25 23° W 18:29:37 10° NW
Cosmos 1241 Rocket 4.4 18:21:26 10° SSW 18:27:49 85° ESE 18:30:28 38° NE
Cosmos 2084 3.7 18:29:22 10° SSW 18:32:45 54° S 18:32:45 54° S
DNEPR-1 R/B 4.0 18:29:00 10° NW 18:34:05 82° NE 18:36:20 39° SE
EO 1 Del DPAF 3.7 18:33:38 49° NNW 18:34:18 58° WNW 18:38:02 10° SSW
SKYMED 2 4.4 18:33:13 20° N 18:35:58 49° WNW 18:40:09 10° SSW
Cosmos 1697 Rocket 2.8 18:33:07 10° SSW 18:38:45 73° WNW 18:41:05 37° NNE
NOSS 3-4 (A) 3.4 18:37:42 10° SW 18:43:57 86° NW 18:45:48 50° NNE
NOSS 3-4 (C) 3.4 18:37:48 10° SW 18:44:03 87° NW 18:45:51 50° NE
Okean 2 4.2 18:43:35 10° SSW 18:47:34 49° WNW 18:48:05 46° NW
Gbstr 26 Del rocket 4.2 18:49:24 10° WSW 18:57:23 81° NNW 18:58:45 62° NE
CENTAUR R/B 3.0 18:54:04 10° NW 19:01:59 83° NE 19:04:34 50° SE
FengYun 1-2 T 4.4 18:57:22 10° S 19:02:58 73° WSW 19:08:40 10° NNW
Cosmos 2251 Rocket 4.1 19:09:16 10° NNW 19:13:36 53° WNW 19:13:36 53° WNW
S3M 4.1 19:11:51 10° S 19:17:04 66° SSW 19:17:04 66° SSW
Cosmos 1980 Rocket 2.6 19:14:13 10° SW 19:19:35 59° WNW 19:19:35 59° WNW
SJ 16-02 4.2 19:32:31 10° WNW 19:34:03 12° NW 19:35:02 11° NW
Cosmos 2344 4.5 19:36:26 10° SSW 19:40:35 35° S 19:40:35 35° S
